Morris, MN

4:22 AM CST on February 12, 2016 (GMT -0600)
Morris Municipal

Weather History for KMOX - January, 2013

Change the Weather History Date:

Saturday, January 5, 2013

  Actual Average Record
Temperature  
Mean Temperature 8 °F -  
Max Temperature 15 °F 19 °F 59 °F (2012)
Min Temperature 0 °F 3 °F -20 °F (2014)
Degree Days  
Heating Degree Days 58    
Moisture  
Dew Point 5 °F    
Average Humidity 86    
Maximum Humidity 92    
Minimum Humidity 73    
Precipitation  
Precipitation 0.00 in - - ()
Sea Level Pressure  
Sea Level Pressure 29.97 in    
Wind  
Wind Speed 8 mph (NW)    
Max Wind Speed 25 mph    
Max Gust Speed 30 mph    
Visibility 7 miles    
Events Snow    
Averages and records for this station are not official NWS values.
T = Trace of Precipitation, MM = Missing Value Source: NWS Daily Summary

Daily Weather History Graph

Daily Weather History Graph

Search for Another Location

Airport or City:

Trip Planner

Search our weather history database for the weather conditions in past years. The results will help you decide how hot, cold, wet, or windy it might be!

Date:

Astronomy

Jan. 05, 2013 Rise Set
Actual Time 8:03 AM CST 4:55 PM CST
Civil Twilight 7:30 AM CST 5:29 PM CST
Nautical Twilight 6:52 AM CST 6:06 PM CST
Astronomical Twilight 6:16 AM CST 6:42 PM CST
Moon 1:01 AM CST (1/5) 11:54 AM CST (1/5)
Length of Visible Light 9h 58m
Length of Day
8h 51m
Last Quarter, 44% of the Moon is Illuminated
Jan 5
Last Quarter
Jan 11
New
Jan 18
First Quarter
Jan 26
Full
Feb 3
Last Quarter

Hourly Weather History & Observations

Time (CST) Temp. Windchill Dew Point Humidity Pressure Visibility Wind Dir Wind Speed Gust Speed Precip Events Conditions
12:11 AM 8.6 °F -4.7 °F 6.8 °F 92% 29.98 in 7.0 mi SE 9.2 mph - N/A   Clear
12:31 AM 5.0 °F -8.1 °F 1.4 °F 85% 29.99 in 7.0 mi SE 8.1 mph - N/A   Clear
12:51 AM 6.8 °F -2.0 °F 5.0 °F 92% 29.99 in 7.0 mi ESE 4.6 mph - N/A   Clear
1:11 AM 8.6 °F 2.0 °F 5.0 °F 85% 29.99 in 5.0 mi SE 3.5 mph - N/A   Clear
1:31 AM 6.8 °F -0.1 °F 5.0 °F 92% 29.99 in 5.0 mi East 3.5 mph - N/A   Clear
1:51 AM 3.2 °F -4.2 °F 1.4 °F 92% 29.98 in 10.0 mi East 3.5 mph - N/A   Clear
2:11 AM 1.4 °F -8.3 °F -0.4 °F 92% 29.98 in 10.0 mi SSE 4.6 mph - N/A   Clear
2:31 AM 1.4 °F -6.2 °F -2.2 °F 85% 29.98 in 7.0 mi SE 3.5 mph - N/A   Clear
2:51 AM 1.4 °F -6.2 °F -0.4 °F 92% 29.98 in 7.0 mi SE 3.5 mph - N/A   Clear
3:11 AM 3.2 °F - 1.4 °F 92% 29.98 in 5.0 mi Calm Calm - N/A   Clear
3:31 AM 3.2 °F -4.2 °F 1.4 °F 92% 29.97 in 4.0 mi SE 3.5 mph - N/A   Clear
3:51 AM 1.4 °F -8.3 °F -0.4 °F 92% 29.95 in 7.0 mi SE 4.6 mph - N/A   Clear
4:31 AM 3.2 °F - -0.4 °F 85% 29.94 in 7.0 mi Calm Calm - N/A   Clear
4:51 AM 3.2 °F -4.2 °F -0.4 °F 85% 29.93 in 7.0 mi SE 3.5 mph - N/A   Clear
5:11 AM 3.2 °F - -0.4 °F 85% 29.92 in 7.0 mi Calm Calm - N/A   Clear
5:51 AM 3.2 °F - -0.4 °F 85% 29.91 in 5.0 mi Calm Calm - N/A   Clear
6:31 AM 1.4 °F - -2.2 °F 85% 29.90 in 10.0 mi Calm Calm - N/A   Clear
6:51 AM 3.2 °F -4.2 °F -0.4 °F 85% 29.90 in 7.0 mi ESE 3.5 mph - N/A   Clear
7:11 AM 1.4 °F - -2.2 °F 85% 29.90 in 10.0 mi Calm Calm - N/A   Clear
7:31 AM -0.4 °F -8.3 °F -2.2 °F 92% 29.89 in 10.0 mi SE 3.5 mph - N/A   Clear
7:51 AM -0.4 °F -8.3 °F -4.0 °F 85% 29.89 in 10.0 mi SSE 3.5 mph - N/A   Clear
8:11 AM 1.4 °F - -2.2 °F 85% 29.90 in 7.0 mi Calm Calm - N/A   Clear
8:31 AM 1.4 °F -6.2 °F -0.4 °F 92% 29.90 in 7.0 mi SE 3.5 mph - N/A   Clear
8:51 AM 3.2 °F - -0.4 °F 85% 29.90 in 5.0 mi Calm Calm - N/A   Clear
9:11 AM 3.2 °F - -0.4 °F 85% 29.91 in 5.0 mi Calm Calm - N/A   Clear
9:31 AM 3.2 °F - 1.4 °F 92% 29.91 in 5.0 mi Calm Calm - N/A   Clear
9:51 AM 5.0 °F - 1.4 °F 85% 29.92 in 7.0 mi Calm Calm - N/A   Clear
10:11 AM 8.6 °F - 5.0 °F 85% 29.92 in 10.0 mi Calm Calm - N/A   Clear
10:51 AM 10.4 °F - 6.8 °F 85% 29.92 in 10.0 mi Calm Calm - N/A   Clear
11:31 AM 14.0 °F - 10.4 °F 86% 29.90 in 10.0 mi Calm Calm - N/A   Clear
11:51 AM 15.8 °F 10.2 °F 12.2 °F 86% 29.90 in 10.0 mi WNW 3.5 mph - N/A   Clear
12:11 PM 15.8 °F 8.6 °F 12.2 °F 86% 29.89 in 10.0 mi WNW 4.6 mph - N/A   Clear
12:31 PM 15.8 °F 6.1 °F 12.2 °F 86% 29.89 in 10.0 mi WNW 6.9 mph - N/A   Clear
12:51 PM 15.8 °F 2.7 °F 12.2 °F 86% 29.89 in 10.0 mi NW 11.5 mph - N/A   Clear
1:11 PM 15.8 °F 0.9 °F 10.4 °F 79% 29.89 in 10.0 mi NW 15.0 mph - N/A   Clear
1:31 PM 12.2 °F -4.3 °F 8.6 °F 85% 29.89 in 10.0 mi NW 16.1 mph - N/A   Clear
1:51 PM 12.2 °F -3.1 °F 8.6 °F 85% 29.90 in 10.0 mi NW 13.8 mph - N/A   Clear
2:11 PM 10.4 °F -7.7 °F 6.8 °F 85% 29.90 in 10.0 mi NW 18.4 mph 23.0 mph N/A   Clear
2:31 PM 10.4 °F -6.6 °F 6.8 °F 85% 29.90 in 7.0 mi NW 16.1 mph - N/A   Mostly Cloudy
2:51 PM 10.4 °F -8.2 °F 6.8 °F 85% 29.90 in 2.5 mi NW 19.6 mph 25.3 mph N/A Snow Light Snow
3:11 PM 10.4 °F -7.7 °F 6.8 °F 85% 29.91 in 1.8 mi NW 18.4 mph 23.0 mph N/A Snow Light Snow
3:31 PM 10.4 °F -9.1 °F 6.8 °F 85% 29.93 in 2.5 mi NW 21.9 mph - N/A Snow Light Snow
3:51 PM 8.6 °F -11.0 °F 6.8 °F 92% 29.95 in 1.5 mi NW 20.7 mph - N/A Snow Light Snow
4:11 PM 10.4 °F -7.7 °F 6.8 °F 85% 29.95 in 1.2 mi NW 18.4 mph 25.3 mph N/A Snow Light Snow
4:31 PM 10.4 °F -9.1 °F 6.8 °F 85% 29.96 in 1.8 mi NW 21.9 mph - N/A Snow Light Snow
4:51 PM 10.4 °F -9.5 °F 8.6 °F 92% 29.97 in 2.0 mi NW 23.0 mph - N/A Snow Light Snow
5:11 PM 12.2 °F -5.8 °F 8.6 °F 85% 29.98 in 5.0 mi NW 19.6 mph - N/A Snow Light Snow
5:31 PM 12.2 °F -5.8 °F 10.4 °F 92% 29.99 in 5.0 mi NNW 19.6 mph - N/A Snow Light Snow
5:51 PM 12.2 °F -7.5 °F 10.4 °F 92% 30.00 in 1.5 mi NNW 24.2 mph 29.9 mph N/A Snow Light Snow
6:11 PM 12.2 °F -5.8 °F 10.4 °F 92% 30.01 in 1.8 mi NNW 19.6 mph 25.3 mph N/A Snow Light Snow
6:31 PM 14.0 °F -3.0 °F 10.4 °F 86% 30.01 in 3.0 mi NNW 18.4 mph 25.3 mph N/A Snow Light Snow
6:51 PM 12.2 °F -6.3 °F 10.4 °F 92% 30.02 in 10.0 mi NW 20.7 mph 25.3 mph N/A   Overcast
7:11 PM 12.2 °F -4.3 °F 8.6 °F 85% 30.02 in 10.0 mi NW 16.1 mph - N/A   Scattered Clouds
7:51 PM 12.2 °F -5.8 °F 6.8 °F 79% 30.04 in 10.0 mi NW 19.6 mph - N/A   Scattered Clouds
8:11 PM 10.4 °F -8.2 °F 6.8 °F 85% 30.05 in 10.0 mi NW 19.6 mph - N/A   Scattered Clouds
8:31 PM 10.4 °F -8.2 °F 6.8 °F 85% 30.06 in 10.0 mi NW 19.6 mph - N/A   Clear
8:51 PM 10.4 °F -10.3 °F 6.8 °F 85% 30.07 in 10.0 mi NW 25.3 mph - N/A   Clear
9:11 PM 10.4 °F -8.2 °F 5.0 °F 79% 30.07 in 10.0 mi NNW 19.6 mph - N/A   Clear
9:31 PM 10.4 °F -7.7 °F 3.2 °F 73% 30.07 in 10.0 mi NW 18.4 mph - N/A   Clear
9:51 PM 10.4 °F -7.2 °F 3.2 °F 73% 30.07 in 10.0 mi NW 17.3 mph - N/A   Clear
10:11 PM 10.4 °F -6.0 °F 3.2 °F 73% 30.08 in 10.0 mi NW 15.0 mph - N/A   Clear
10:31 PM 8.6 °F -8.3 °F 3.2 °F 79% 30.08 in 10.0 mi NNW 15.0 mph - N/A   Clear
10:51 PM 10.4 °F -6.6 °F 5.0 °F 79% 30.08 in 10.0 mi NW 16.1 mph - N/A   Clear
11:11 PM 8.6 °F -8.3 °F 5.0 °F 85% 30.10 in 10.0 mi NW 15.0 mph - N/A   Clear
11:31 PM 8.6 °F -7.7 °F 5.0 °F 85% 30.10 in 10.0 mi NNW 13.8 mph - N/A   Clear
11:51 PM 8.6 °F -4.7 °F 5.0 °F 85% 30.10 in 10.0 mi NW 9.2 mph - N/A   Clear